Tracking 31032 objects as of 14-Jul-2025
HD Live streaming from Space Station
objects crossing your sky now

STARLINK-5951

Track STARLINK-5951 now!
10-day predictions
STARLINK-5951 is classified as:


NORAD ID: 56918
Int'l Code: 2023-083AU
Perigee: 565.0 km
Apogee: 567.4 km
Inclination: 43.0 °
Period: 95.8 minutes
Semi major axis: 6937 km
RCS: Unknown
Launch date: June 12, 2023
Source: United States (US)
Launch site: AIR FORCE EASTERN TEST RANGE (AFETR)
Your satellite tracking list
Your tracking list is empty




NASA's NSSDC Master Catalog

Two Line Element Set (TLE):
1 56918U 23083AU  25194.71969402  .00000081  00000-0  21081-4 0  9999
2 56918  43.0043 287.2253 0001702 274.6821  85.3827 15.02532781115075
Source of the keplerian elements: AFSPC